GS0511 Weather Reports


time (UTC)temp
C
wind
direction
speed
KPH
gust
KPH
rain 1hr
cm
rain 24hr
cm
rain mn
cm
humidity
%
barometer
mb
20260906010000 18 178 0.0 0.0 0.00 0.00 0.00 92 1016.2
20260906004458 18 178 0.0 0.0 0.00 0.00 0.00 91 1016.3
20260906002957 18 178 0.0 0.0 0.00 0.00 0.00 91 1016.1
20260906001457 18 178 0.0 0.0 0.00 0.00 0.00 89 1015.9
20260906000001 18 178 0.0 1.6 0.00 0.00 0.00 87 1016.0
20260905234458 20 178 0.0 0.0 0.00 0.00 0.00 85 1016.2
20260905231457 21 178 0.0 3.2 0.00 0.00 0.00 79 1016.2
20260905230002 21 146 0.0 3.2 0.00 0.00 0.00 78 1016.2
20260905224457 22 67 1.6 4.8 0.00 0.00 0.00 74 1016.0
20260905222957 23 295 1.6 3.2 0.00 0.00 0.00 72 1016.1
20260905221459 23 355 1.6 4.8 0.00 0.00 0.00 71 1016.0
20260905220001 23 280 3.2 4.8 0.00 0.00 0.00 70 1016.0
20260905214457 23 17 1.6 4.8 0.00 0.00 0.00 70 1015.9
20260905212957 23 316 3.2 6.4 0.00 0.00 0.00 69 1015.8
20260905211457 23 63 1.6 8.0 0.00 0.00 0.00 65 1015.6
20260905210000 23 339 1.6 4.8 0.00 0.00 0.00 67 1015.5
20260905204457 23 128 1.6 6.4 0.00 0.00 0.00 67 1015.5
20260905202957 23 355 3.2 6.4 0.00 0.00 0.00 67 1015.4
20260905201458 23 324 3.2 6.4 0.00 0.00 0.00 68 1015.5
20260905200002 23 331 1.6 6.4 0.00 0.00 0.00 69 1015.4
20260905194459 23 332 3.2 8.0 0.00 0.00 0.00 68 1015.5
20260905192957 23 32 1.6 8.0 0.00 0.00 0.00 69 1015.5
20260905191457 23 344 3.2 6.4 0.00 0.00 0.00 67 1015.7
20260905190002 23 63 3.2 6.4 0.00 0.00 0.00 73 1015.7
20260905184457 22 78 3.2 4.8 0.00 0.00 0.00 69 1015.8
20260905182957 23 355 1.6 6.4 0.00 0.00 0.00 70 1015.4
20260905181457 23 64 0.0 3.2 0.00 0.00 0.00 69 1015.4
20260905174457 23 325 3.2 6.4 0.00 0.00 0.00 69 1015.4
20260905172956 23 315 1.6 8.0 0.00 0.00 0.00 69 1015.3
20260905171456 22 227 3.2 11.3 0.00 0.00 0.00 69 1015.4
20260905164457 22 294 3.2 6.4 0.00 0.00 0.00 70 1015.3
20260905162956 22 305 1.6 4.8 0.00 0.00 0.00 71 1015.5
20260905161456 22 264 3.2 6.4 0.00 0.00 0.00 71 1015.6
20260905155959 22 301 3.2 8.0 0.00 0.00 0.00 72 1015.6
20260905154457 22 340 3.2 8.0 0.00 0.00 0.00 72 1015.8
20260905151456 22 237 3.2 6.4 0.00 0.00 0.00 76 1015.9
20260905145959 22 312 3.2 12.9 0.00 0.00 0.00 75 1015.8
20260905144456 21 350 3.2 6.4 0.00 0.00 0.00 74 1015.9
20260905141456 20 355 1.6 3.2 0.00 0.00 0.00 82 1015.9
20260905140000 21 355 3.2 9.7 0.00 0.00 0.00 82 1015.8
20260905131457 19 315 1.6 4.8 0.00 0.00 0.00 90 1015.8
20260905125958 18 315 1.6 6.4 0.00 0.00 0.00 94 1016.0
20260905124456 18 341 1.6 4.8 0.00 0.00 0.00 98 1016.2
20260905122955 17 300 1.6 6.4 0.00 0.00 0.00 98 1015.9
20260905121455 17 211 0.0 3.2 0.00 0.00 0.00 99 1015.9
20260905115959 16 211 0.0 1.6 0.00 0.00 0.00 99 1015.9
20260905114456 15 211 0.0 0.0 0.00 0.00 0.00 99 1015.7
20260905112955 14 211 0.0 0.0 0.00 0.00 0.00 98 1015.4
20260905111458 14 211 0.0 0.0 0.00 0.00 0.00 98 1015.3
20260905104455 13 211 0.0 0.0 0.00 0.00 0.00 97 1015.5
20260905102955 14 211 0.0 0.0 0.00 0.00 0.00 98 1015.1
20260905101456 14 211 0.0 0.0 0.00 0.00 0.00 98 1014.9
20260905095958 14 211 0.0 0.0 0.00 0.00 0.00 97 1014.9
20260905094455 14 211 0.0 0.0 0.00 0.00 0.00 98 1014.9
20260905092956 14 211 0.0 0.0 0.00 0.00 0.00 97 1014.8
20260905091455 14 211 0.0 0.0 0.00 0.00 0.00 97 1014.7
20260905085958 15 211 0.0 0.0 0.00 0.00 0.00 97 1014.5
20260905084455 15 211 0.0 0.0 0.00 0.00 0.00 97 1014.5
20260905082956 15 211 0.0 0.0 0.00 0.00 0.00 97 1014.5
20260905081455 15 211 0.0 0.0 0.00 0.00 0.00 97 1014.6
20260905075958 15 211 0.0 0.0 0.00 0.00 0.00 97 1014.7
20260905074456 15 211 0.0 0.0 0.00 0.00 0.00 97 1014.9
20260905072955 16 211 0.0 0.0 0.00 0.00 0.00 97 1014.9
20260905071456 16 211 0.0 0.0 0.00 0.00 0.00 97 1014.8
20260905065958 16 211 0.0 0.0 0.00 0.00 0.00 97 1014.9
20260905064455 16 211 0.0 0.0 0.00 0.00 0.00 97 1015.1
20260905062956 16 211 0.0 0.0 0.00 0.00 0.00 96 1015.1
20260905061456 16 211 0.0 0.0 0.00 0.00 0.00 96 1015.2
20260905055958 17 211 0.0 0.0 0.00 0.00 0.00 96 1015.2
20260905054456 17 211 0.0 0.0 0.00 0.00 0.00 96 1015.3
20260905052956 17 211 0.0 0.0 0.00 0.00 0.00 96 1015.4
20260905051456 17 211 0.0 0.0 0.00 0.00 0.00 95 1015.4
20260905045957 17 211 0.0 0.0 0.00 0.00 0.00 95 1015.3
20260905044455 17 211 0.0 0.0 0.00 0.00 0.00 94 1015.3
20260905042954 17 211 0.0 0.0 0.00 0.00 0.00 93 1015.3
20260905041454 17 211 0.0 0.0 0.00 0.00 0.00 92 1015.4
20260905040006 18 211 0.0 1.6 0.00 0.00 0.00 92 1015.3
20260905034458 18 211 0.0 0.0 0.00 0.00 0.00 91 1015.3
20260905032958 18 211 0.0 3.2 0.00 0.00 0.00 91 1015.4
20260905031458 18 211 0.0 3.2 0.00 0.00 0.00 91 1015.2
20260905030001 18 211 0.0 1.6 0.00 0.00 0.00 92 1015.2
20260905024459 18 211 0.0 3.2 0.00 0.00 0.00 91 1015.2
20260905022958 18 211 0.0 1.6 0.00 0.00 0.00 91 1015.4
20260905021458 18 211 0.0 1.6 0.00 0.00 0.00 91 1015.3
20260905020001 18 211 0.0 0.0 0.00 0.00 0.00 90 1015.4
20260905014458 19 211 0.0 0.0 0.00 0.41 0.00 89 1015.4
20260905012959 19 211 0.0 0.0 0.00 0.41 0.00 87 1015.4